Weather Service Report


957 
ASUS44 KEWX 030003
RWRTX 
SOUTH TEXAS REGIONAL WEATHER ROUNDUP
NATIONAL WEATHER SERVICE AUSTIN/SAN ANTONIO TX
700 PM CDT WED SEP 02 2015

NOTE: "FAIR" INDICATED FEW OR NO CLOUDS BELOW 12,000 FEET WITH NO
SIGNIFICANT WEATHER AND/OR OBSTRUCTIONS TO VISIBILITY.

* - THESE STATIONS ARE NOT NWS OR FAA STATIONS...AND ARE NOT SUBJECT
    TO NWS AND FAA QUALITY CONTROL.
 
TXZ171-172-183>190-030100-
TEXAS HILL COUNTRY AND EDWARDS PLATEAU
  
CITY           SKY/WX    TMP DP  RH WIND       PRES   REMARKS
JUNCTION       SUNNY     92  55  28 SE7       29.93F HX  90           
6HR MIN TEMP:  86; 6HR MAX TEMP:  95;                                

*LLANO         MOSUNNY   91  61  35 S7        29.96F HX  91           
BURNET         SUNNY     90  61  37 SE8       29.97S HX  90           
6HR MIN TEMP:  86; 6HR MAX TEMP:  93;                                

*HORSESHOE BAY SUNNY     91  60  35 E3        29.94S HX  91           
6HR MIN TEMP:  87; 6HR MAX TEMP:  94;                                

*KERRVILLE     PTSUNNY   92  62  37 E9        29.95S HX  92           
6HR MIN TEMP:  84; 6HR MAX TEMP:  93;                                

*FREDERICKSBRG SUNNY     89  56  33 E6        29.96S                  
*ROCKSPRINGS   MOSUNNY   90  61  37 S3        30.00F                  
*BOERNE STAGE  MOSUNNY   88  61  40 SE9       29.95F                  
*CASTROVILLE   SUNNY     92  59  32 E8        29.92S HX  91           
HONDO          SUNNY     92  61  35 SE9       29.92S HX  92           
6HR MIN TEMP:  87; 6HR MAX TEMP:  96;                                

*UVALDE        SUNNY     93  62  35 E6        29.90F HX  93           
DEL RIO        SUNNY     94  62  34 SE8       29.87F HX  94           
6HR MIN TEMP:  86; 6HR MAX TEMP:  96;                                

LAUGHLIN AFB   NOT AVBL                                               
CARRIZO SPRGS  SUNNY     95  61  31 E5        29.86S HX  95           
*EAGLE PASS    CLEAR     93  61  33 CALM      29.88F HX  93           
$$

TXZ173-191>194-202-209-217>225-228-030100-
CENTRAL AND SOUTH CENTRAL TEXAS
  
CITY           SKY/WX    TMP DP  RH WIND       PRES   REMARKS
GEORGETOWN     MOSUNNY   91  63  38 E7        29.93F HX  92           
AUSTIN/BERGSTM MOSUNNY   89  66  46 SE10      29.91F HX  91           
6HR MIN TEMP:  85; 6HR MAX TEMP:  93;                                

AUSTIN/MABRY   MOSUNNY   89  65  44 E8        29.93S HX  91           
6HR MIN TEMP:  85; 6HR MAX TEMP:  95;                                

*AUSTIN/EXEC   MOSUNNY   90  64  43 E12       29.93S HX  91           
*LAGO VISTA    MOSUNNY   89  63  41 E8        29.95F                  
6HR MIN TEMP:  86; 6HR MAX TEMP:  92;                                

SAN MARCOS     MOSUNNY   88  64  45 E12       29.93S                  
NEW BRAUNFELS  MOSUNNY   90  65  43 E14       29.90S HX  92           
6HR MIN TEMP:  88; 6HR MAX TEMP:  97;                                

RANDOLPH AFB   NOT AVBL                                               
PT SAN ANTONIO NOT AVBL                                               
SAN ANTONIO    MOSUNNY   92  62  36 E6        29.91F HX  92           
6HR MIN TEMP:  87; 6HR MAX TEMP:  94;                                

STINSON FIELD  SUNNY     93  62  35 VRB5      29.88S HX  93           
6HR MIN TEMP:  87; 6HR MAX TEMP:  95;                                

*PLEASANTON    SUNNY     94  61  32 NE9       29.88F HX  94           
*LA GRANGE     PTCLDY    87  72  60 E7        29.91S HX  94           
*GIDDINGS      CLEAR     86  67  53 E7        29.97S                  
*GONZALES      MOSUNNY   90  69  50 E6        29.90S HX  95           
$$

TXZ163>164-176>182-195>201-210>213-226-227-235-030100-
SOUTHEAST TEXAS
  
CITY           SKY/WX    TMP DP  RH WIND       PRES   REMARKS
COLLEGE STN    CLEAR     85  68  56 SE13      29.94R                  
6HR MIN TEMP:  85; 6HR MAX TEMP:  90; 6HR PCP:  0.02;                

*BRYAN         CLOUDY    87  68  53 S8        29.95S HX  90           
*CALDWELL      CLEAR     84  68  58 E7        29.97S                  
*CROCKETT      PTCLDY    91  63  38 NE5       29.96S HX  92           
*BRENHAM       DRIZZLE   82  71  69 SE7       29.95S                  
HUNTSVILLE     MOCLDY    87  68  52 SE6       29.95R HX  90           
6HR MIN TEMP:  87; 6HR MAX TEMP:  94;                                

CONROE         CLOUDY    81  67  62 SE12      29.97R                  
6HR MIN TEMP:  81; 6HR MAX TEMP:  90; 6HR PCP: TRACE;                

HOUSTON BUSH   MOCLDY    77  73  87 E13       29.95F                  
6HR MIN TEMP:  76; 6HR MAX TEMP:  89; 6HR PCP:  0.02;                

HOUSTON HOBBY  PTCLDY    83  73  72 E6        29.93S                  
6HR MIN TEMP:  83; 6HR MAX TEMP:  87;                                

*HOUSTON SW AP MOCLDY    83  73  72 E6        29.94S                  
PEARLAND       PTCLDY    84  71  65 E10       29.95S                  
6HR MIN TEMP:  83; 6HR MAX TEMP:  88;                                

HOUSTON HOOKS  PTCLDY    81  70  69 E8        29.95S                  
6HR MIN TEMP:  79; 6HR MAX TEMP:  90; 6HR PCP:  0.14;                

ELLINGTON FLD  NOT AVBL                                               
SUGAR LAND     PTCLDY    84  72  67 E7        29.93R                  
6HR MIN TEMP:  84; 6HR MAX TEMP:  88;                                

*HOUSTON EXEC  PTCLDY    82  73  74 E7        29.95S                  
*CLEVELAND MUN RAIN      76  73  88 SE3       30.00R                  
*WHARTON       PTCLDY    78  74  85 CALM      29.94R                  
*COLUMBUS      MOCLDY    78  73  84 CALM      29.93F                  
*EAGLE LAKE    CLOUDY    77  73  88 CALM      29.94R                  
$$

TXZ214>216-236>238-030100-
THE UPPER TEXAS COAST
  
CITY           SKY/WX    TMP DP  RH WIND       PRES   REMARKS
*ORANGE        CLOUDY    80  71  74 CALM      29.98S                  
6HR MIN TEMP:  79; 6HR MAX TEMP:  88;                                

PORT ARTHUR    MOCLDY    81  74  79 E10       29.95S                  
6HR MIN TEMP:  81; 6HR MAX TEMP:  90;                                

GALVESTON      MOCLDY    83  75  77 SE12      29.94F HX  90           
6HR MIN TEMP:  80; 6HR MAX TEMP:  85;                                

ANGLETON       PTCLDY    83  75  77 E5        29.93S HX  90           
6HR MIN TEMP:  83; 6HR MAX TEMP:  87;                                

*BAY CITY      CLEAR     84  74  73 E6        29.93R HX  91           
PALACIOS       PTCLDY    83  75  77 E12       29.92S HX  90           
6HR MIN TEMP:  83; 6HR MAX TEMP:  87;                                

$$

TXZ229>234-239>247-030100-
TEXAS COASTAL BEND AND RIO GRANDE PLAINS
  
CITY           SKY/WX    TMP DP  RH WIND       PRES   REMARKS
VICTORIA       MOCLDY    80  76  87 E12       29.92S                  
6HR MIN TEMP:  79; 6HR MAX TEMP:  91; 6HR PCP:  0.02;                

*BEEVILLE      SUNNY     88  73  60 E10       29.90R HX  95           
6HR MIN TEMP:  88; 6HR MAX TEMP:  93;                                

ROCKPORT       PTCLDY    84  74  71 E14       29.90S HX  91           
6HR MIN TEMP:  81; 6HR MAX TEMP:  89;                                

*PORT ARANSAS  PTCLDY    83  74  74 E10G17    29.90F HX  91           
6HR MIN TEMP:  82; 6HR MAX TEMP:  86;                                

*PORT LAVACA   NOT AVBL                                               
*INGLESIDE     CLEAR     86  74  66 E14G20    29.89F HX  94           
CORPUS CHRISTI MOSUNNY   86  72  62 E16       29.89S HX  92           
6HR MIN TEMP:  83; 6HR MAX TEMP:  90;                                

CORPUS NAS     PTCLDY    84  73  69 E15       29.89F HX  90           
6HR MIN TEMP:  84; 6HR MAX TEMP:  89;                                

*ROBSTOWN      SUNNY     87  74  64 E15       29.89S HX  96           
ALICE          MOSUNNY   88  71  57 SE15      29.87S HX  94           
6HR MIN TEMP:  88; 6HR MAX TEMP:  96;                                

KINGSVILLE NAS MOSUNNY   86  76  71 E16       29.88S HX  96           
6HR MIN TEMP:  86; 6HR MAX TEMP:  95;                                

COTULLA        PTSUNNY   95  63  34 E8        29.86S HX  96           
6HR MIN TEMP:  90; 6HR MAX TEMP:  99;                                

*FAITH RANCH     N/A     95  61  31 NE7       29.86F HX  95           
LAREDO         MOSUNNY   97  63  32 E10       29.86S HX  98           
6HR MIN TEMP:  91; 6HR MAX TEMP: 100;                                

$$

TXZ248>255-030100-
DEEP SOUTH TEXAS
  
CITY           SKY/WX    TMP DP  RH WIND       PRES   REMARKS
BROWNSVILLE    CLEAR     85  75  72 E12       29.87F HX  93           
6HR MIN TEMP:  78; 6HR MAX TEMP:  92; 6HR PCP:  0.18;                

PORT ISABEL    CLEAR     87  76  69 E13       29.87F HX  97           
6HR MIN TEMP:  86; 6HR MAX TEMP:  93; 6HR PCP: TRACE;                

*SOUTH PADRE   CLEAR     84  77  79 E12       29.87F HX  94           
HARLINGEN      SUNNY     87  76  69 E14       29.86F HX  97           
6HR MIN TEMP:  86; 6HR MAX TEMP:  95;                                

*HEBBRONVILLE  NOT AVBL                                               
MCALLEN        MOSUNNY   90  74  59 E15       29.86S HX  99           
6HR MIN TEMP:  90; 6HR MAX TEMP:  96;                                

*WESLACO       SUNNY     87  73  62 SE13      29.86S HX  95           
FALFURRIAS     MOSUNNY   87  74  63 E12       29.87S HX  95           
6HR MIN TEMP:  87; 6HR MAX TEMP:  97;                                

EDINBURG       MOSUNNY   90  73  57 E17       29.86S HX  99           
*ZAPATA        MOSUNNY   94  65  37 SE12G17   29.84R HX  96           
$$

TXZ213>215-236>238-242>244-246-247-251-254-255-030100-
CMAN STATIONS
  
STATION/POSITION TIME  TEMP    WIND        PRES    WAVE
                       AIR SEA DIR/SP/G            HT/PER
                 (UTC) (F)     (DEG/KT/KT) (MB)    (FT/S)
$$

GMZ080-GMZ150>470-030100-
OFFSHORE BUOY REPORTS
  
STATION/POSITION TIME  TEMP    WIND        PRES    WAVE
                       AIR SEA DIR/SP/G            HT/PER

Return to Home page


Western Regional Climate Center, wrcc@dri.edu